OIBK

Kish International

Airport
ICAO code
OIBK
IATA Code
KIH
Summary
ICAO Region
MID
ICAO Territory
Location

Kish Island, Kish Island

Serving
Kish Island
Elevation
101 ft
Coordinates
26° 31' 39" N , 53° 58' 59" E
KCC
Metar
OIBK 160330Z 07012KT 4000 BR SCT025CB OVC070 19/18 Q1010

Kish International Airport is an airport on Kish Island, Iran.

Climatology

Warm Desert climate (Köppen climate classification BWh).

Runways

Designator Length Width Surface Rops
09L/27R 3659 66 ASP No/No
09R/27L 3659 45 ASP No/No

Airport map

Aerial View

SKYbrary Partners:

Safety knowledge contributed by: